TimeEDT,TemperatureF,Dew PointF,Humidity,Sea Level PressureIn,VisibilityMPH,Wind Direction,Wind SpeedMPH,Gust SpeedMPH,PrecipitationIn,Events,Conditions,WindDirDegrees,DateUTC
12:51 AM,43.0,23.0,45,30.09,10.0,WSW,6.9,-,N/A,,Overcast,240,2013-03-11 04:51:00
1:51 AM,43.0,23.0,45,30.07,10.0,WSW,5.8,-,N/A,,Mostly Cloudy,240,2013-03-11 05:51:00
2:51 AM,41.0,23.0,49,30.07,10.0,NW,3.5,-,N/A,,Scattered Clouds,310,2013-03-11 06:51:00
3:51 AM,37.0,25.0,62,30.04,10.0,WSW,3.5,-,N/A,,Clear,250,2013-03-11 07:51:00
4:51 AM,42.1,23.0,47,30.04,10.0,WSW,5.8,-,N/A,,Clear,240,2013-03-11 08:51:00
5:51 AM,42.1,24.1,49,30.05,10.0,West,6.9,-,N/A,,Partly Cloudy,260,2013-03-11 09:51:00
6:51 AM,35.1,26.1,70,30.04,10.0,Calm,Calm,-,N/A,,Scattered Clouds,0,2013-03-11 10:51:00
7:51 AM,41.0,25.0,53,30.04,10.0,WSW,6.9,-,N/A,,Scattered Clouds,250,2013-03-11 11:51:00
8:51 AM,41.0,25.0,53,30.04,10.0,SW,4.6,-,N/A,,Partly Cloudy,220,2013-03-11 12:51:00
9:51 AM,48.0,25.0,41,30.02,10.0,SW,8.1,-,N/A,,Clear,230,2013-03-11 13:51:00
10:51 AM,46.0,25.0,44,30.02,10.0,SW,10.4,-,N/A,,Clear,230,2013-03-11 14:51:00
11:51 AM,46.0,25.0,44,30.01,10.0,SW,11.5,-,N/A,,Clear,220,2013-03-11 15:51:00
12:51 PM,50.0,25.0,38,29.99,10.0,SW,12.7,-,N/A,,Clear,220,2013-03-11 16:51:00
1:51 PM,48.0,27.0,44,29.98,10.0,South,10.4,-,N/A,,Partly Cloudy,190,2013-03-11 17:51:00
2:51 PM,48.9,27.0,43,29.95,10.0,South,10.4,-,N/A,,Partly Cloudy,190,2013-03-11 18:51:00
3:51 PM,51.1,26.1,38,29.93,10.0,South,8.1,-,N/A,,Partly Cloudy,170,2013-03-11 19:51:00
4:51 PM,51.1,24.1,35,29.89,10.0,South,10.4,-,N/A,,Clear,170,2013-03-11 20:51:00
5:51 PM,48.9,24.1,38,29.90,10.0,South,8.1,-,N/A,,Partly Cloudy,180,2013-03-11 21:51:00
6:51 PM,48.0,24.1,39,29.91,10.0,South,8.1,-,N/A,,Mostly Cloudy,180,2013-03-11 22:51:00
7:51 PM,46.9,23.0,39,29.88,10.0,South,11.5,19.6,N/A,,Mostly Cloudy,180,2013-03-11 23:51:00
8:51 PM,46.9,21.9,37,29.86,10.0,South,5.8,-,N/A,,Partly Cloudy,190,2013-03-12 00:51:00
9:51 PM,46.9,21.9,37,29.85,10.0,SSW,10.4,17.3,N/A,,Partly Cloudy,200,2013-03-12 01:51:00
11:51 PM,44.1,32.0,63,29.85,10.0,SSW,17.3,25.3,N/A,,Overcast,200,2013-03-12 03:51:00